Location: *
(40.7873°S, 98.7174°E)
Time: 11:40:21
(UTC+00:00)

Kosmos-1816 - Pass Details

Date: 23 June 2024
Orbit: 959 x 1007 km, 82.9° (Epoch: 23 July)

Event Time Altitude Azimuth Distance (km) Brightness Sun altitude
Rises 23:10:15 0° 52° (NE) 3,719 10.3 -18.2°
Reaches altitude 10° 23:14:31 10° 79° (E) 2,790 9.7 -17.4°
Maximum altitude 23:16:57 12° 102° (ESE) 2,624 9.2 -17.0°
Drops below altitude 10° 23:19:24 10° 125° (SE) 2,808 8.9 -16.5°
Sets 23:23:43 0° 152° (SSE) 3,771 9.2 -15.7°
